This is the latest recevied weather packets stored in our database for station/object SM0UQT-10. If no packets are shown the sender has not sent any weather packets the latest 10 day(s).
| Time | Temp. | Humidity | Pressure | Rain* | Wind** | Luminosity | Snow |
|---|---|---|---|---|---|---|---|
| 1777640805 | 22.22° C | 33% | 1023.6 hPa | - | - | - | - |
| 1777639984 | 22.22° C | 32% | 1023.9 hPa | - | - | - | - |
| 1777639905 | 22.22° C | 32% | 1023.9 hPa | - | - | - | - |
| 1777639329 | 22.22° C | 32% | 1024 hPa | - | - | - | - |
| 1777639005 | 22.22° C | 32% | 1024 hPa | - | - | - | - |
| 1777638104 | 21.67° C | 32% | 1024.3 hPa | - | - | - | - |
| 1777637534 | 22.22° C | 31% | 1024.1 hPa | - | - | - | - |
| 1777637204 | 22.22° C | 31% | 1024.1 hPa | - | - | - | - |
| 1777636391 | 21.67° C | 33% | 1024.4 hPa | - | - | - | - |
| 1777636304 | 21.67° C | 33% | 1024.4 hPa | - | - | - | - |
| 1777635462 | 21.67° C | 33% | 1024.5 hPa | - | - | - | - |
| 1777635403 | 21.67° C | 33% | 1024.5 hPa | - | - | - | - |
| 1777634737 | 21.67° C | 32% | 1024.6 hPa | - | - | - | - |
| 1777634503 | 21.67° C | 32% | 1024.6 hPa | - | - | - | - |
| 1777633837 | 20.56° C | 33% | 1024.9 hPa | - | - | - | - |
| 1777633603 | 20.56° C | 33% | 1024.9 hPa | - | - | - | - |
| 1777632943 | 20° C | 34% | 1025 hPa | - | - | - | - |
| 1777632703 | 20° C | 34% | 1025 hPa | - | - | - | - |
| 1777632093 | 20.56° C | 34% | 1025.3 hPa | - | - | - | - |
| 1777631802 | 20.56° C | 34% | 1025.3 hPa | - | - | - | - |
| 1777631739 | 20.56° C | 34% | 1025.2 hPa | - | - | - | - |
| 1777631684 | 20° C | 36% | 1025.2 hPa | - | - | - | - |
| 1777631576 | 20° C | 36% | 1025.2 hPa | - | - | - | - |
| 1777631143 | 20° C | 36% | 1025.4 hPa | - | - | - | - |
| 1777631038 | 20° C | 36% | 1025.4 hPa | - | - | - | - |
* Rain since midnight (hover to see other rain measurements)
** Current wind speed in m/s (hover to see current wind gust speed)